QPF
0.10 0.09 0.08 0.07 0.06 0.06 0.05 0.04 0.03 0.03 0.02 0.02 0.02 0.01 0.01 0.01 0.01 0.01 0.01 0.00 0.00 0.00 0.00 0.00 0.00 0.00 0.00 0.00 0.00 0.00 0.00 0.00 0.00 0.00 0.00 0.00 0.00 0.00 0.00 0.00 0.00 0.00 0.00
0.08 0.08 0.07 0.06 0.05 0.04 0.04 0.04 0.03 0.03 0.02 0.02 0.02 0.02 0.02 0.01 0.01 0.01 0.01 0.00 0.00 0.00 0.00 0.00 0.00 0.00 0.00 0.00 0.00 0.00 0.00 0.00 0.00 0.00 0.00 0.00 0.00 0.00 0.00 0.00 0.00 0.00 0.00
0.05 0.04 0.05 0.05 0.04 0.05 0.04 0.03 0.02 0.02 0.02 0.02 0.02 0.01 0.01 0.01 0.01 0.00 0.00 0.00 0.00 0.00 0.00 0.00 0.00 0.00 0.00 0.00 0.00 0.00 0.00 0.00 0.00 0.00 0.00 0.00 0.00 0.00 0.00 0.00 0.00 0.00 0.00
0.04 0.03 0.03 0.03 0.03 0.02 0.02 0.02 0.02 0.01 0.01 0.01 0.00 0.00 0.00 0.00 0.00 0.00 0.00 0.00 0.00 0.00 0.00 0.00 0.00 0.00 0.00 0.00 0.00 0.00 0.00 0.00 0.00 0.00 0.00 0.00 0.00 0.00 0.00 0.00 0.00 0.00 0.00
0.02 0.02 0.02 0.02 0.02 0.01 0.01 0.01 0.00 0.00 0.00 0.00 0.00 0.00 0.00 0.00 0.00 0.00 0.00 0.00 0.00 0.00 0.00 0.00 0.00 0.00 0.00 0.00 0.00 0.00 0.00 0.00 0.00 0.00 0.00 0.00 0.00 0.00 0.00 0.00 0.00 0.00 0.00
0.03 0.03 0.02 0.02 0.01 0.01 0.01 0.00 0.00 0.00 0.00 0.00 0.00 0.00 0.00 0.00 0.00 0.00 0.00 0.00 0.00 0.00 0.00 0.00 0.00 0.00 0.00 0.00 0.00 0.00 0.00 0.00 0.00 0.00 0.00 0.00 0.00 0.00 0.00 0.01 0.01 0.01 0.01
0.01 0.01 0.01 0.01 0.01 0.00 0.00 0.00 0.00 0.00 0.00 0.00 0.00 0.00 0.00 0.00 0.00 0.00 0.00 0.00 0.00 0.00 0.00 0.00 0.00 0.00 0.00 0.00 0.00 0.00 0.00 0.00 0.00 0.00 0.00 0.00 0.00 0.01 0.01 0.01 0.01 0.01 0.01
0.01 0.01 0.00 0.00 0.00 0.00 0.00 0.00 0.00 0.00 0.00 0.00 0.00 0.00 0.00 0.00 0.00 0.00 0.00 0.00 0.00 0.00 0.00 0.00 0.00 0.00 0.00 0.00 0.00 0.00 0.00 0.00 0.00 0.00 0.00 0.00 0.01 0.01 0.01 0.01 0.01 0.01 0.01
0.01 0.01 0.01 0.01 0.01 0.00 0.00 0.00 0.00 0.00 0.00 0.00 0.00 0.00 0.00 0.00 0.00 0.00 0.00 0.00 0.00 0.00 0.00 0.00 0.00 0.00 0.00 0.00 0.00 0.00 0.00 0.00 0.00 0.00 0.00 0.00 0.00 0.00 0.01 0.01 0.01 0.02 0.01
0.01 0.01 0.01 0.01 0.01 0.01 0.00 0.00 0.00 0.00 0.00 0.00 0.00 0.00 0.00 0.00 0.00 0.00 0.00 0.00 0.00 0.00 0.00 0.00 0.00 0.00 0.00 0.01 0.01 0.00 0.01 0.00 0.00 0.00 0.00 0.00 0.00 0.00 0.01 0.01 0.01 0.01 0.02
0.00 0.00 0.00 0.00 0.00 0.00 0.00 0.00 0.00 0.00 0.00 0.00 0.00 0.00 0.00 0.00 0.00 0.00 0.00 0.00 0.00 0.00 0.00 0.00 0.01 0.01 0.01 0.01 0.01 0.01 0.01 0.01 0.00 0.00 0.00 0.00 0.01 0.00 0.00 0.00 0.00 0.00 0.01
0.00 0.00 0.00 0.00 0.00 0.00 0.00 0.00 0.00 0.00 0.00 0.00 0.00 0.00 0.00 0.00 0.00 0.00 0.00 0.00 0.00 0.00 0.01 0.01 0.01 0.01 0.01 0.01 0.01 0.01 0.01 0.01 0.01 0.01 0.01 0.01 0.01 0.01 0.01 0.00 0.00 0.00 0.00
0.00 0.00 0.00 0.00 0.00 0.00 0.00 0.00 0.00 0.00 0.00 0.00 0.00 0.00 0.00 0.00 0.00 0.00 0.00 0.00 0.01 0.01 0.01 0.01 0.01 0.01 0.01 0.01 0.01 0.01 0.01 0.01 0.01 0.01 0.01 0.01 0.00 0.00 0.00 0.00 0.00 0.00 0.00
0.00 0.00 0.00 0.00 0.00 0.00 0.00 0.00 0.00 0.00 0.00 0.00 0.00 0.00 0.00 0.00 0.00 0.00 0.00 0.00 0.01 0.01 0.01 0.01 0.01 0.01 0.01 0.01 0.01 0.01 0.01 0.01 0.01 0.01 0.01 0.00 0.00 0.00 0.00 0.00 0.00 0.00 0.00
0.00 0.00 0.00 0.00 0.00 0.00 0.00 0.00 0.00 0.00 0.00 0.00 0.00 0.00 0.00 0.00 0.00 0.00 0.00 0.01 0.01 0.01 0.01 0.01 0.01 0.01 0.01 0.01 0.01 0.00 0.00 0.00 0.01 0.00 0.00 0.00 0.00 0.00 0.00 0.00 0.00 0.00 0.00
0.00 0.00 0.00 0.00 0.00 0.00 0.00 0.00 0.00 0.00 0.00 0.00 0.00 0.00 0.00 0.00 0.00 0.00 0.01 0.01 0.01 0.02 0.02 0.02 0.02 0.01 0.01 0.01 0.00 0.00 0.00 0.00 0.00 0.00 0.00 0.00 0.00 0.00 0.00 0.00 0.00 0.00 0.00
0.00 0.00 0.00 0.00 0.00 0.00 0.00 0.00 0.00 0.00 0.00 0.00 0.00 0.00 0.00 0.00 0.00 0.01 0.01 0.01 0.01 0.01 0.02 0.02 0.02 0.01 0.00 0.00 0.00 0.00 0.00 0.00 0.00 0.00 0.00 0.00 0.00 0.00 0.00 0.00 0.00 0.00 0.00
0.00 0.00 0.00 0.00 0.00 0.00 0.00 0.00 0.00 0.00 0.00 0.00 0.00 0.00 0.00 0.00 0.00 0.00 0.01 0.01 0.01 0.01 0.01 0.02 0.02 0.01 0.00 0.00 0.00 0.00 0.00 0.00 0.00 0.00 0.00 0.00 0.00 0.00 0.00 0.00 0.00 0.00 0.00
0.00 0.00 0.00 0.00 0.00 0.00 0.00 0.00 0.00 0.00 0.00 0.00 0.00 0.00 0.00 0.00 0.00 0.01 0.01 0.01 0.01 0.01 0.01 0.01 0.00 0.00 0.00 0.00 0.00 0.00 0.00 0.00 0.00 0.00 0.00 0.00 0.00 0.00 0.00 0.00 0.00 0.00 0.00
0.00 0.00 0.00 0.00 0.00 0.00 0.00 0.00 0.00 0.00 0.00 0.00 0.00 0.00 0.00 0.00 0.00 0.01 0.01 0.01 0.01 0.01 0.01 0.00 0.00 0.00 0.00 0.00 0.00 0.00 0.00 0.00 0.00 0.00 0.00 0.00 0.00 0.00 0.00 0.00 0.00 0.00 0.00
0.00 0.00 0.00 0.00 0.00 0.00 0.00 0.00 0.00 0.00 0.00 0.00 0.00 0.00 0.00 0.01 0.01 0.01 0.01 0.00 0.00 0.00 0.00 0.00 0.00 0.00 0.00 0.00 0.00 0.00 0.00 0.00 0.00 0.00 0.00 0.00 0.00 0.00 0.00 0.00 0.00 0.00 0.00
0.00 0.00 0.00 0.00 0.00 0.00 0.00 0.00 0.00 0.00 0.00 0.00 0.00 0.00 0.00 0.01 0.01 0.00 0.00 0.00 0.00 0.00 0.00 0.00 0.00 0.00 0.00 0.00 0.00 0.00 0.00 0.00 0.00 0.00 0.00 0.00 0.00 0.00 0.00 0.00 0.00 0.00 0.00
0.00 0.00 0.00 0.00 0.00 0.00 0.00 0.00 0.00 0.00 0.00 0.00 0.00 0.00 0.00 0.01 0.00 0.00 0.00 0.00 0.00 0.00 0.00 0.00 0.00 0.00 0.00 0.00 0.00 0.00 0.00 0.00 0.00 0.00 0.00 0.00 0.00 0.00 0.00 0.00 0.00 0.00 0.00
0.00 0.00 0.00 0.00 0.00 0.00 0.00 0.00 0.00 0.00 0.00 0.00 0.00 0.00 0.00 0.00 0.00 0.00 0.00 0.00 0.00 0.00 0.00 0.00 0.00 0.00 0.00 0.00 0.00 0.00 0.00 0.00 0.00 0.00 0.00 0.00 0.00 0.00 0.00 0.00 0.00 0.00 0.00
0.00 0.00 0.00 0.00 0.00 0.00 0.00 0.00 0.00 0.00 0.00 0.00 0.00 0.00 0.00 0.00 0.00 0.00 0.00 0.00 0.00 0.00 0.00 0.00 0.00 0.00 0.00 0.00 0.00 0.00 0.00 0.00 0.00 0.00 0.00 0.00 0.00 0.00 0.00 0.00 0.00 0.00 0.00
0.00 0.00 0.00 0.00 0.00 0.00 0.00 0.00 0.00 0.00 0.00 0.00 0.00 0.00 0.00 0.00 0.00 0.00 0.00 0.00 0.00 0.00 0.00 0.00 0.00 0.00 0.00 0.00 0.00 0.00 0.00 0.00 0.00 0.00 0.00 0.00 0.00 0.00 0.00 0.00 0.00 0.00 0.00
MSLP
1018.36 1018.76 1019.20 1019.66 1020.12 1020.55 1020.96 1021.33 1021.68 1022.01 1022.33 1022.64 1022.94 1023.23 1023.50 1023.75 1023.96 1024.15 1024.30 1024.42 1024.50 1024.55 1024.57 1024.57 1024.54 1024.49 1024.42 1024.34 1024.24 1024.13 1024.00 1023.85 1023.67 1023.46 1023.21 1022.91 1022.57 1022.19 1021.78 1021.36 1020.94 1020.53 1020.14
1019.90 1020.26 1020.64 1021.02 1021.39 1021.73 1022.04 1022.34 1022.61 1022.88 1023.16 1023.43 1023.71 1023.97 1024.23 1024.45 1024.64 1024.79 1024.89 1024.94 1024.94 1024.91 1024.84 1024.74 1024.63 1024.50 1024.36 1024.22 1024.08 1023.94 1023.78 1023.61 1023.42 1023.19 1022.91 1022.59 1022.22 1021.81 1021.38 1020.92 1020.48 1020.04 1019.63
1021.37 1021.70 1022.03 1022.34 1022.62 1022.87 1023.10 1023.31 1023.52 1023.72 1023.94 1024.17 1024.41 1024.64 1024.86 1025.05 1025.20 1025.29 1025.34 1025.33 1025.26 1025.15 1025.00 1024.82 1024.63 1024.43 1024.24 1024.05 1023.87 1023.70 1023.52 1023.33 1023.12 1022.88 1022.58 1022.24 1021.86 1021.43 1020.97 1020.50 1020.03 1019.57 1019.14
1022.70 1023.01 1023.29 1023.54 1023.76 1023.94 1024.09 1024.23 1024.36 1024.51 1024.67 1024.84 1025.03 1025.21 1025.38 1025.53 1025.63 1025.67 1025.66 1025.59 1025.46 1025.29 1025.07 1024.83 1024.58 1024.33 1024.09 1023.86 1023.65 1023.45 1023.25 1023.04 1022.81 1022.55 1022.24 1021.89 1021.49 1021.05 1020.58 1020.10 1019.62 1019.14 1018.69
1023.84 1024.13 1024.38 1024.59 1024.75 1024.86 1024.96 1025.03 1025.11 1025.20 1025.30 1025.42 1025.55 1025.68 1025.80 1025.89 1025.93 1025.93 1025.87 1025.75 1025.57 1025.35 1025.09 1024.81 1024.51 1024.22 1023.94 1023.67 1023.43 1023.19 1022.96 1022.73 1022.48 1022.20 1021.88 1021.52 1021.11 1020.67 1020.21 1019.73 1019.24 1018.77 1018.30
1024.77 1025.04 1025.27 1025.43 1025.55 1025.62 1025.67 1025.70 1025.73 1025.77 1025.82 1025.89 1025.97 1026.05 1026.11 1026.14 1026.14 1026.08 1025.98 1025.82 1025.60 1025.35 1025.06 1024.75 1024.43 1024.10 1023.79 1023.49 1023.20 1022.93 1022.66 1022.39 1022.12 1021.81 1021.48 1021.12 1020.72 1020.29 1019.84 1019.37 1018.90 1018.44 1017.97
1025.50 1025.74 1025.93 1026.06 1026.14 1026.18 1026.20 1026.20 1026.20 1026.21 1026.23 1026.26 1026.29 1026.32 1026.33 1026.31 1026.25 1026.16 1026.01 1025.82 1025.58 1025.30 1024.99 1024.66 1024.32 1023.97 1023.62 1023.28 1022.95 1022.64 1022.33 1022.02 1021.71 1021.39 1021.05 1020.69 1020.30 1019.90 1019.48 1019.04 1018.60 1018.15 1017.70
1026.04 1026.24 1026.39 1026.48 1026.53 1026.55 1026.55 1026.54 1026.53 1026.52 1026.52 1026.53 1026.52 1026.51 1026.47 1026.41 1026.31 1026.17 1025.99 1025.77 1025.51 1025.22 1024.89 1024.54 1024.18 1023.80 1023.42 1023.04 1022.67 1022.30 1021.95 1021.61 1021.27 1020.93 1020.59 1020.24 1019.88 1019.51 1019.13 1018.73 1018.33 1017.91 1017.49
1026.42 1026.57 1026.67 1026.73 1026.76 1026.77 1026.76 1026.75 1026.74 1026.74 1026.73 1026.72 1026.70 1026.65 1026.58 1026.48 1026.34 1026.16 1025.95 1025.70 1025.41 1025.10 1024.76 1024.39 1024.00 1023.59 1023.17 1022.76 1022.34 1021.94 1021.54 1021.17 1020.81 1020.46 1020.13 1019.80 1019.48 1019.15 1018.81 1018.46 1018.10 1017.73 1017.33
1026.67 1026.76 1026.82 1026.85 1026.87 1026.87 1026.87 1026.87 1026.88 1026.89 1026.89 1026.88 1026.85 1026.78 1026.68 1026.54 1026.36 1026.15 1025.90 1025.61 1025.30 1024.96 1024.59 1024.20 1023.78 1023.35 1022.90 1022.44 1021.99 1021.55 1021.13 1020.73 1020.36 1020.02 1019.70 1019.40 1019.11 1018.83 1018.54 1018.24 1017.92 1017.58 1017.21
1026.83 1026.87 1026.89 1026.90 1026.90 1026.91 1026.92 1026.95 1026.98 1027.01 1027.03 1027.03 1026.99 1026.91 1026.79 1026.61 1026.40 1026.15 1025.86 1025.54 1025.19 1024.82 1024.42 1023.99 1023.55 1023.08 1022.61 1022.12 1021.65 1021.18 1020.75 1020.34 1019.97 1019.64 1019.34 1019.07 1018.82 1018.58 1018.33 1018.07 1017.78 1017.47 1017.12
1026.92 1026.93 1026.92 1026.90 1026.90 1026.92 1026.95 1027.01 1027.07 1027.13 1027.17 1027.18 1027.14 1027.05 1026.91 1026.71 1026.46 1026.16 1025.83 1025.47 1025.09 1024.68 1024.25 1023.80 1023.33 1022.84 1022.34 1021.84 1021.35 1020.88 1020.44 1020.03 1019.67 1019.36 1019.08 1018.83 1018.61 1018.39 1018.17 1017.93 1017.66 1017.36 1017.02
1026.97 1026.95 1026.92 1026.90 1026.91 1026.94 1026.99 1027.07 1027.16 1027.24 1027.30 1027.32 1027.29 1027.19 1027.03 1026.80 1026.52 1026.19 1025.82 1025.43 1025.01 1024.57 1024.11 1023.63 1023.14 1022.64 1022.13 1021.63 1021.13 1020.66 1020.23 1019.83 1019.49 1019.18 1018.92 1018.68 1018.47 1018.26 1018.04 1017.81 1017.54 1017.24 1016.90
1026.98 1026.95 1026.92 1026.91 1026.92 1026.97 1027.04 1027.14 1027.25 1027.35 1027.42 1027.44 1027.41 1027.30 1027.12 1026.88 1026.57 1026.21 1025.82 1025.40 1024.95 1024.49 1024.01 1023.52 1023.02 1022.52 1022.01 1021.51 1021.03 1020.57 1020.14 1019.76 1019.41 1019.11 1018.84 1018.61 1018.38 1018.16 1017.93 1017.67 1017.39 1017.08 1016.73
1026.96 1026.93 1026.91 1026.91 1026.94 1027.01 1027.10 1027.21 1027.33 1027.43 1027.51 1027.53 1027.48 1027.37 1027.18 1026.92 1026.59 1026.22 1025.81 1025.38 1024.92 1024.45 1023.97 1023.48 1022.99 1022.50 1022.01 1021.52 1021.05 1020.60 1020.18 1019.80 1019.45 1019.13 1018.84 1018.57 1018.32 1018.06 1017.79 1017.51 1017.20 1016.87 1016.51
1026.92 1026.91 1026.90 1026.92 1026.97 1027.04 1027.14 1027.26 1027.38 1027.48 1027.54 1027.56 1027.50 1027.38 1027.18 1026.91 1026.59 1026.21 1025.81 1025.37 1024.92 1024.47 1024.00 1023.54 1023.06 1022.59 1022.12 1021.65 1021.20 1020.76 1020.33 1019.94 1019.56 1019.22 1018.89 1018.57 1018.27 1017.96 1017.64 1017.31 1016.97 1016.61 1016.24
1026.85 1026.86 1026.88 1026.92 1026.98 1027.07 1027.17 1027.29 1027.39 1027.48 1027.53 1027.53 1027.47 1027.33 1027.13 1026.87 1026.56 1026.20 1025.81 1025.40 1024.98 1024.55 1024.12 1023.68 1023.24 1022.79 1022.35 1021.90 1021.45 1021.01 1020.58 1020.15 1019.74 1019.35 1018.96 1018.59 1018.22 1017.85 1017.48 1017.11 1016.74 1016.36 1015.99
1026.77 1026.80 1026.84 1026.90 1026.98 1027.07 1027.18 1027.28 1027.38 1027.45 1027.49 1027.47 1027.40 1027.26 1027.07 1026.82 1026.53 1026.20 1025.85 1025.48 1025.09 1024.71 1024.31 1023.91 1023.51 1023.09 1022.67 1022.23 1021.79 1021.34 1020.88 1020.42 1019.96 1019.51 1019.06 1018.62 1018.18 1017.75 1017.34 1016.93 1016.53 1016.15 1015.78
1026.68 1026.73 1026.79 1026.86 1026.96 1027.06 1027.16 1027.26 1027.35 1027.41 1027.43 1027.41 1027.33 1027.20 1027.03 1026.80 1026.54 1026.25 1025.94 1025.61 1025.28 1024.93 1024.58 1024.23 1023.85 1023.46 1023.06 1022.63 1022.18 1021.70 1021.22 1020.72 1020.21 1019.69 1019.18 1018.67 1018.18 1017.70 1017.24 1016.80 1016.39 1016.01 1015.66
1026.59 1026.65 1026.72 1026.81 1026.92 1027.02 1027.13 1027.23 1027.31 1027.37 1027.38 1027.36 1027.29 1027.18 1027.03 1026.83 1026.61 1026.36 1026.10 1025.82 1025.53 1025.23 1024.92 1024.59 1024.25 1023.87 1023.47 1023.04 1022.58 1022.08 1021.56 1021.02 1020.45 1019.89 1019.32 1018.76 1018.22 1017.70 1017.22 1016.77 1016.36 1015.99 1015.66
1026.50 1026.56 1026.65 1026.75 1026.86 1026.98 1027.10 1027.20 1027.29 1027.35 1027.37 1027.36 1027.31 1027.22 1027.09 1026.93 1026.75 1026.54 1026.32 1026.09 1025.84 1025.57 1025.29 1024.98 1024.65 1024.29 1023.88 1023.44 1022.96 1022.43 1021.88 1021.29 1020.69 1020.08 1019.47 1018.88 1018.31 1017.77 1017.28 1016.84 1016.44 1016.10 1015.79
1026.41 1026.48 1026.57 1026.68 1026.81 1026.94 1027.07 1027.18 1027.28 1027.35 1027.39 1027.40 1027.37 1027.31 1027.22 1027.09 1026.95 1026.78 1026.59 1026.39 1026.17 1025.93 1025.66 1025.36 1025.03 1024.66 1024.24 1023.78 1023.28 1022.73 1022.15 1021.53 1020.90 1020.26 1019.63 1019.02 1018.44 1017.91 1017.43 1017.00 1016.63 1016.31 1016.04
1026.34 1026.40 1026.50 1026.61 1026.75 1026.90 1027.04 1027.17 1027.29 1027.38 1027.45 1027.48 1027.48 1027.45 1027.39 1027.30 1027.18 1027.04 1026.88 1026.70 1026.49 1026.26 1025.99 1025.69 1025.35 1024.97 1024.53 1024.05 1023.53 1022.95 1022.35 1021.72 1021.07 1020.42 1019.79 1019.18 1018.61 1018.10 1017.64 1017.24 1016.90 1016.62 1016.37
1026.29 1026.34 1026.44 1026.56 1026.71 1026.87 1027.03 1027.18 1027.32 1027.43 1027.52 1027.58 1027.61 1027.61 1027.57 1027.51 1027.42 1027.30 1027.16 1026.99 1026.79 1026.55 1026.28 1025.97 1025.61 1025.20 1024.75 1024.25 1023.70 1023.12 1022.50 1021.86 1021.21 1020.57 1019.95 1019.36 1018.81 1018.33 1017.90 1017.54 1017.24 1016.98 1016.77
1026.26 1026.32 1026.41 1026.54 1026.69 1026.86 1027.04 1027.21 1027.36 1027.50 1027.61 1027.69 1027.74 1027.76 1027.75 1027.71 1027.64 1027.54 1027.41 1027.24 1027.04 1026.80 1026.52 1026.19 1025.81 1025.39 1024.92 1024.40 1023.84 1023.24 1022.62 1021.99 1021.35 1020.72 1020.12 1019.56 1019.05 1018.59 1018.20 1017.88 1017.61 1017.39 1017.20
1026.27 1026.33 1026.42 1026.56 1026.72 1026.90 1027.08 1027.26 1027.43 1027.58 1027.70 1027.80 1027.87 1027.91 1027.92 1027.90 1027.84 1027.75 1027.63 1027.47 1027.27 1027.02 1026.73 1026.39 1026.00 1025.56 1025.08 1024.55 1023.98 1023.39 1022.77 1022.14 1021.52 1020.91 1020.33 1019.80 1019.32 1018.90 1018.55 1018.25 1018.01 1017.82 1017.67
Thickness
5626 5622 5619 5615 5611 5607 5603 5597 5592 5588 5585 5581 5577 5573 5568 5564 5560 5556 5551 5547 5543 5539 5536 5532 5528 5524 5519 5516 5512 5507 5503 5499 5498 5496 5492 5491 5488 5487 5485 5483 5480 5479 5477
5607 5605 5601 5596 5593 5590 5586 5580 5576 5572 5568 5564 5560 5556 5551 5546 5542 5538 5533 5529 5525 5521 5517 5514 5509 5506 5502 5498 5495 5491 5487 5483 5481 5480 5478 5476 5474 5472 5471 5469 5467 5465 5463
5590 5587 5583 5579 5576 5572 5567 5563 5559 5555 5551 5547 5543 5538 5533 5529 5524 5520 5515 5511 5507 5502 5499 5495 5491 5488 5485 5482 5479 5476 5472 5469 5465 5463 5463 5461 5460 5459 5458 5457 5455 5453 5452
5574 5570 5566 5563 5559 5555 5551 5547 5543 5539 5535 5531 5526 5521 5516 5512 5507 5503 5498 5494 5489 5485 5481 5478 5475 5472 5469 5466 5464 5461 5458 5455 5453 5450 5449 5449 5448 5447 5446 5446 5447 5445 5443
5558 5554 5550 5546 5543 5540 5536 5531 5527 5523 5519 5515 5510 5505 5500 5495 5491 5486 5482 5477 5472 5468 5464 5461 5458 5458 5455 5452 5450 5448 5446 5443 5442 5440 5439 5439 5440 5439 5437 5436 5436 5437 5436
5543 5539 5535 5532 5528 5525 5521 5517 5513 5508 5504 5500 5495 5490 5485 5481 5475 5471 5466 5460 5455 5451 5448 5445 5443 5441 5440 5438 5437 5436 5435 5434 5433 5431 5432 5432 5433 5432 5430 5429 5429 5429 5431
5528 5524 5521 5518 5515 5511 5508 5503 5498 5494 5490 5485 5481 5476 5470 5466 5461 5456 5450 5445 5440 5436 5433 5430 5429 5428 5427 5426 5426 5427 5427 5426 5426 5425 5426 5427 5427 5426 5425 5425 5424 5423 5424
5515 5512 5508 5505 5502 5498 5494 5490 5486 5481 5477 5473 5468 5462 5457 5452 5447 5442 5437 5432 5428 5425 5422 5419 5418 5418 5418 5417 5418 5420 5421 5423 5423 5423 5423 5423 5423 5423 5421 5420 5420 5420 5420
5504 5501 5498 5495 5491 5487 5483 5479 5474 5470 5466 5461 5456 5450 5444 5439 5435 5430 5425 5421 5418 5416 5414 5412 5411 5411 5412 5412 5413 5415 5418 5421 5423 5422 5422 5422 5422 5421 5420 5419 5419 5418 5419
5494 5491 5488 5485 5481 5477 5473 5468 5464 5459 5454 5450 5444 5438 5433 5428 5423 5418 5414 5411 5409 5408 5408 5408 5408 5408 5409 5410 5411 5413 5416 5419 5420 5421 5422 5422 5422 5422 5420 5418 5416 5415 5415
5484 5482 5479 5475 5472 5468 5463 5459 5454 5450 5445 5439 5434 5429 5424 5419 5414 5410 5407 5404 5402 5402 5403 5405 5406 5407 5408 5411 5412 5414 5415 5417 5418 5419 5420 5421 5421 5421 5420 5418 5415 5413 5412
5476 5473 5470 5467 5464 5461 5456 5451 5446 5441 5436 5430 5425 5421 5416 5412 5408 5406 5403 5401 5399 5400 5401 5403 5405 5408 5410 5412 5414 5416 5417 5418 5418 5419 5420 5420 5420 5419 5418 5417 5416 5414 5412
5468 5465 5462 5460 5456 5453 5448 5443 5438 5433 5428 5423 5418 5414 5411 5408 5406 5403 5402 5401 5401 5401 5402 5404 5407 5409 5412 5414 5415 5416 5417 5418 5418 5419 5419 5418 5418 5417 5417 5417 5416 5415 5414
5462 5458 5455 5452 5449 5445 5441 5437 5432 5428 5423 5418 5414 5410 5407 5405 5404 5402 5401 5401 5403 5404 5405 5407 5409 5411 5413 5414 5416 5418 5418 5418 5417 5417 5417 5417 5417 5417 5417 5415 5414 5413 5412
5455 5452 5449 5446 5443 5439 5435 5431 5428 5424 5419 5415 5411 5407 5404 5403 5402 5400 5399 5401 5402 5403 5405 5408 5410 5412 5414 5415 5417 5418 5419 5419 5419 5418 5417 5417 5417 5417 5416 5414 5412 5412 5410
5449 5447 5444 5441 5438 5434 5431 5427 5424 5421 5418 5414 5410 5406 5404 5402 5401 5402 5403 5404 5405 5407 5408 5408 5410 5411 5412 5413 5415 5417 5419 5419 5418 5418 5417 5417 5416 5415 5415 5414 5413 5412 5411
5445 5442 5439 5437 5434 5431 5428 5424 5421 5418 5416 5413 5410 5407 5405 5404 5403 5404 5405 5406 5408 5409 5409 5409 5410 5411 5412 5414 5415 5416 5417 5417 5417 5417 5417 5416 5415 5415 5415 5414 5413 5412 5412
5442 5439 5437 5434 5431 5428 5425 5421 5418 5415 5413 5410 5409 5407 5406 5406 5405 5406 5407 5409 5410 5410 5409 5409 5410 5412 5413 5414 5415 5415 5416 5417 5417 5417 5417 5416 5415 5415 5415 5415 5414 5413 5412
5440 5437 5434 5431 5428 5425 5422 5419 5416 5413 5410 5408 5407 5407 5407 5407 5407 5407 5408 5408 5408 5409 5409 5410 5411 5412 5413 5414 5414 5415 5415 5416 5416 5416 5416 5416 5416 5415 5416 5415 5415 5413 5412
5438 5436 5433 5429 5426 5423 5420 5417 5415 5412 5410 5408 5407 5406 5406 5407 5407 5407 5408 5408 5408 5409 5409 5410 5411 5412 5413 5413 5414 5415 5416 5416 5416 5416 5416 5416 5416 5416 5416 5416 5416 5415 5415
5437 5434 5432 5428 5425 5422 5419 5416 5414 5412 5410 5409 5408 5407 5406 5406 5406 5407 5407 5408 5408 5408 5409 5410 5411 5412 5413 5413 5414 5414 5415 5415 5415 5415 5415 5416 5417 5418 5418 5418 5418 5417 5416
5435 5432 5429 5426 5423 5421 5418 5416 5414 5412 5410 5410 5409 5408 5408 5408 5408 5408 5408 5408 5408 5408 5409 5410 5411 5411 5411 5412 5412 5413 5414 5415 5416 5415 5416 5417 5418 5419 5419 5419 5419 5418 5418
5434 5431 5428 5425 5422 5420 5418 5416 5414 5413 5411 5410 5409 5409 5409 5409 5409 5409 5409 5409 5409 5409 5410 5411 5412 5412 5413 5413 5413 5413 5414 5415 5415 5415 5416 5418 5419 5420 5420 5420 5419 5419 5418
5434 5431 5429 5425 5422 5420 5418 5416 5415 5413 5412 5411 5410 5410 5409 5409 5409 5409 5409 5409 5409 5410 5411 5411 5412 5412 5414 5415 5416 5416 5416 5417 5418 5419 5419 5420 5421 5421 5421 5421 5420 5419 5418
5434 5432 5429 5426 5423 5421 5419 5417 5415 5414 5413 5412 5411 5411 5410 5410 5410 5410 5410 5410 5410 5411 5411 5412 5413 5414 5415 5416 5417 5418 5420 5422 5423 5423 5424 5423 5423 5423 5422 5421 5420 5419 5418
5436 5433 5430 5427 5424 5422 5420 5418 5416 5415 5414 5413 5412 5411 5411 5411 5410 5410 5410 5410 5411 5411 5412 5413 5413 5414 5416 5418 5419 5421 5423 5425 5426 5426 5426 5425 5425 5424 5423 5421 5421 5420 5418